Time,TemperatureF,DewpointF,PressureIn,WindDirection,WindDirectionDegrees,WindSpeedMPH,WindSpeedGustMPH,Humidity,HourlyPrecipIn,Conditions,Clouds,dailyrainin,SoftwareType,DateUTC
2013-01-15 00:04:00,41.0,25.0,-100.00,NW,315,5.0,9.0,53,-99.99,,,-99.99,,2013-01-15 05:04:00,
2013-01-15 00:12:00,41.0,25.0,-100.00,WNW,295,6.0,10.0,54,-99.99,,,-99.99,,2013-01-15 05:12:00,
2013-01-15 00:22:00,41.0,25.0,-100.00,WNW,300,5.0,10.0,54,-99.99,,,-99.99,,2013-01-15 05:22:00,
2013-01-15 00:33:00,40.0,25.0,-100.00,NNW,330,6.0,9.0,54,-99.99,,,-99.99,,2013-01-15 05:33:00,
2013-01-15 00:42:00,40.0,25.0,-100.00,NW,320,6.0,8.0,55,-99.99,,,-99.99,,2013-01-15 05:42:00,
2013-01-15 00:52:00,40.0,26.0,-100.00,NNW,335,3.0,9.0,56,-99.99,,,-99.99,,2013-01-15 05:52:00,
2013-01-15 01:03:00,40.0,26.0,-100.00,North,350,5.0,7.0,56,-99.99,,,-99.99,,2013-01-15 06:03:00,
2013-01-15 01:52:00,39.0,25.0,-100.00,NW,315,3.0,10.0,56,-99.99,,,-99.99,,2013-01-15 06:52:00,
2013-01-15 02:02:00,39.0,25.0,-100.00,NNW,330,6.0,13.0,57,-99.99,,,-99.99,,2013-01-15 07:02:00,
2013-01-15 02:12:00,39.0,25.0,-100.00,NNW,335,5.0,10.0,56,-99.99,,,-99.99,,2013-01-15 07:12:00,
2013-01-15 02:22:00,39.0,25.0,-100.00,NNW,340,3.0,7.0,57,-99.99,,,-99.99,,2013-01-15 07:22:00,
2013-01-15 02:33:00,39.0,25.0,-100.00,NNW,330,6.0,9.0,56,-99.99,,,-99.99,,2013-01-15 07:33:00,
2013-01-15 03:30:00,38.0,24.0,-100.00,North,10,2.0,5.0,58,-99.99,,,-99.99,,2013-01-15 08:30:00,
2013-01-15 03:43:00,38.0,24.0,-100.00,North,10,1.0,5.0,57,-99.99,,,-99.99,,2013-01-15 08:43:00,
2013-01-15 03:52:00,38.0,24.0,-100.00,NNW,345,1.0,2.0,57,-99.99,,,-99.99,,2013-01-15 08:52:00,
2013-01-15 04:02:00,38.0,24.0,-100.00,NW,315,3.0,5.0,57,-99.99,,,-99.99,,2013-01-15 09:02:00,
2013-01-15 04:12:00,38.0,24.0,-100.00,North,10,2.0,5.0,58,-99.99,,,-99.99,,2013-01-15 09:12:00,
2013-01-15 04:22:00,38.0,24.0,-100.00,North,10,2.0,5.0,58,-99.99,,,-99.99,,2013-01-15 09:22:00,
2013-01-15 11:00:00,39.0,22.0,-100.00,North,350,5.0,8.0,50,-99.99,,,-99.99,,2013-01-15 16:00:00,
2013-01-15 11:03:00,39.0,22.0,-100.00,NNW,335,7.0,12.0,51,-99.99,,,-99.99,,2013-01-15 16:03:00,
2013-01-15 11:12:00,39.0,22.0,-100.00,NW,325,5.0,13.0,51,-99.99,,,-99.99,,2013-01-15 16:12:00,
2013-01-15 11:23:00,39.0,22.0,-100.00,NNW,345,8.0,13.0,51,-99.99,,,-99.99,,2013-01-15 16:23:00,
2013-01-15 11:33:00,39.0,22.0,-100.00,NNW,345,8.0,13.0,51,-99.99,,,-99.99,,2013-01-15 16:33:00,
2013-01-15 11:43:00,39.0,22.0,-100.00,North,350,5.0,8.0,50,-99.99,,,-99.99,,2013-01-15 16:43:00,
2013-01-15 11:53:00,39.0,22.0,-100.00,North,350,5.0,8.0,50,-99.99,,,-99.99,,2013-01-15 16:53:00,
2013-01-15 12:33:00,39.0,22.0,-100.00,North,5,5.0,8.0,50,-99.99,,,-99.99,,2013-01-15 17:33:00,
2013-01-15 12:43:00,39.0,21.0,-100.00,North,355,6.0,10.0,48,-99.99,,,-99.99,,2013-01-15 17:43:00,
2013-01-15 12:53:00,40.0,22.0,-100.00,North,350,5.0,8.0,48,-99.99,,,-99.99,,2013-01-15 17:53:00,
2013-01-15 13:03:00,40.0,22.0,-100.00,NNW,330,3.0,9.0,48,-99.99,,,-99.99,,2013-01-15 18:03:00,
2013-01-15 13:13:00,40.0,22.0,-100.00,NNE,15,3.0,9.0,48,-99.99,,,-99.99,,2013-01-15 18:13:00,
2013-01-15 13:23:00,40.0,21.0,-100.00,North,350,3.0,7.0,47,-99.99,,,-99.99,,2013-01-15 18:23:00,
2013-01-15 13:33:00,40.0,22.0,-100.00,WNW,285,2.0,7.0,48,-99.99,,,-99.99,,2013-01-15 18:33:00,
2013-01-15 13:43:00,40.0,21.0,-100.00,NW,310,3.0,7.0,47,-99.99,,,-99.99,,2013-01-15 18:43:00,
2013-01-15 13:53:00,40.0,22.0,-100.00,North,0,2.0,7.0,48,-99.99,,,-99.99,,2013-01-15 18:53:00,
2013-01-15 14:03:00,40.0,22.0,-100.00,NNW,330,2.0,6.0,47,-99.99,,,-99.99,,2013-01-15 19:03:00,
2013-01-15 14:13:00,40.0,21.0,-100.00,NW,315,3.0,8.0,46,-99.99,,,-99.99,,2013-01-15 19:13:00,
2013-01-15 14:33:00,40.0,22.0,-100.00,NW,315,5.0,7.0,47,-99.99,,,-99.99,,2013-01-15 19:33:00,
2013-01-15 14:43:00,40.0,21.0,-100.00,NNW,345,2.0,6.0,47,-99.99,,,-99.99,,2013-01-15 19:43:00,
2013-01-15 14:53:00,40.0,22.0,-100.00,North,350,6.0,8.0,48,-99.99,,,-99.99,,2013-01-15 19:53:00,
2013-01-15 15:04:00,40.0,22.0,-100.00,NNW,345,3.0,7.0,47,-99.99,,,-99.99,,2013-01-15 20:04:00,
2013-01-15 16:34:00,40.0,22.0,-100.00,ENE,75,1.0,2.0,48,-99.99,,,-99.99,,2013-01-15 21:34:00,
2013-01-15 16:43:00,40.0,21.0,-100.00,NNW,340,1.0,2.0,46,-99.99,,,-99.99,,2013-01-15 21:43:00,
2013-01-15 16:53:00,40.0,21.0,-100.00,NNW,340,1.0,2.0,46,-99.99,,,-99.99,,2013-01-15 21:53:00,
2013-01-15 17:00:00,36.0,22.0,-100.00,SSW,210,1.0,1.0,56,-99.99,,,-99.99,,2013-01-15 22:00:00,
2013-01-15 17:03:00,39.0,23.0,-100.00,WSW,245,0.0,1.0,52,-99.99,,,-99.99,,2013-01-15 22:03:00,
2013-01-15 17:12:00,39.0,23.0,-100.00,SW,225,1.0,3.0,54,-99.99,,,-99.99,,2013-01-15 22:12:00,
2013-01-15 17:23:00,39.0,23.0,-100.00,SW,225,1.0,3.0,54,-99.99,,,-99.99,,2013-01-15 22:23:00,
2013-01-15 17:33:00,37.0,23.0,-100.00,WSW,250,1.0,1.0,58,-99.99,,,-99.99,,2013-01-15 22:33:00,
2013-01-15 17:43:00,36.0,22.0,-100.00,SSW,210,1.0,1.0,56,-99.99,,,-99.99,,2013-01-15 22:43:00,
2013-01-15 17:52:00,36.0,22.0,-100.00,SSW,210,1.0,1.0,56,-99.99,,,-99.99,,2013-01-15 22:52:00,
2013-01-15 20:12:00,33.0,22.0,-100.00,South,190,0.0,1.0,65,-99.99,,,-99.99,,2013-01-16 01:12:00,
2013-01-15 20:22:00,33.0,22.0,-100.00,South,190,0.0,1.0,65,-99.99,,,-99.99,,2013-01-16 01:22:00,
2013-01-15 20:33:00,32.0,23.0,-100.00,North,0,1.0,2.0,69,-99.99,,,-99.99,,2013-01-16 01:33:00,
2013-01-15 20:43:00,32.0,23.0,-100.00,WSW,250,0.0,1.0,69,-99.99,,,-99.99,,2013-01-16 01:43:00,
2013-01-15 20:52:00,32.0,23.0,-100.00,NE,40,0.0,1.0,68,-99.99,,,-99.99,,2013-01-16 01:52:00,
2013-01-15 21:03:00,32.0,22.0,-100.00,ESE,110,0.0,1.0,67,-99.99,,,-99.99,,2013-01-16 02:03:00,